Погода в Ираншахре

Иран     27°12′50″N   60°30′58″E
темп.,
°C
ветер,
м/с
пор.,
м/с
влажн.,
%
обл.,
%
осадки,
мм/ч
давл.,
гПа
погр.,
м
19 апреля, пн
пн1901:30+25з221955 0.0 101123
04:30+23юз342095 0.0 101155
07:30+24зюз1318100 0.0 1012276
10:30+28юз341598 0.0 10111025
13:30+33зюз461068 0.0 10072418
16:30+34з54110 0.0 10042994
19:30+30зсз6915100 0.1 1006208
22:30+27вюв222473 0.9 1010134
20 апреля, вт
вт2001:30+25всв22245 0.1 100922
04:30+23в12290 0.1 100911
07:30+25зсз01260 0.0 1011128
10:30+30з34180 0.0 10111166
13:30+35сз4780 0.0 10084280
16:30+35сз9881 0.0 10064323
19:30+32сз58100 0.0 1007119
22:30+29ссв46130 0.0 100962
21 апреля, ср
ср2101:30+26св11150 0.0 100913
04:30+24ююв01180 0.0 101011
07:30+27ссз01140 0.0 101367
10:30+32сз36100 0.0 10121385
13:30+36з5785 0.0 10093186
16:30+38зсз88718 0.0 10074499
19:30+33с4790 0.0 1008100
22:30+29з12120 0.0 101028
22 апреля, чт
чт2201:30+27зсз23200 0.0 101114
04:30+24ююз12210 0.0 101211
07:30+27вюв11170 0.0 101398
10:30+33юз11110 0.0 1012744
13:30+37зсз4675 0.0 10093368
16:30+38зюз5775 0.0 10074516
19:30+34с58832 0.0 1007101
22:30+31ссв4711100 0.0 1009101
23 апреля, пт
пт2301:30+28в221429 0.0 100932
04:30+25ююв33185 0.0 101028
07:30+27ю01180 0.0 1011122
10:30+33юв11120 0.0 1010817
13:30+38зюз4580 0.0 10073732
16:30+39з67712 0.0 10054099
19:30+35з57101 0.0 100675
22:30+32з461257 0.0 100785